Погода в Дарг-Кохе

Россия / Республика Северная Осетия — Алания     43°15′58″N   44°21′28″E
темп.,
°C
ветер,
м/с
пор.,
м/с
влажн.,
%
обл.,
%
осадки,
мм/ч
давл.,
гПа
погр.,
м
8 мая, сб
сб800:00+11ю11765 0.0 101911
03:00+10ю11795 0.0 101910
06:00+12ююв117834 0.0 101841
09:00+18в235758 0.0 1016680
12:00+21всв334961 0.0 10141272
15:00+22всв334786 0.0 10131347
18:00+19всв356661 0.0 1012130
21:00+13юв12742 0.0 101314
9 мая, вс
вс900:00+12юз118012 0.0 101110
03:00+11ю1181100 0.0 101010
06:00+13ююз1178100 0.0 100926
09:00+19с335946 0.0 1007440
12:00+20ссз445854 0.0 10071090
15:00+12ссз71388100 0.8 1012594
18:00+8ссз61390100 3.3 1017831
21:00+6ссз41191100 5.0 10221073
10 мая, пн
пн1000:00+6ююв1291100 1.7 1023231
03:00+6ююв3391100 2.1 1023136
06:00+6ююв228699 0.8 1024380
09:00+10всв136085 1.0 10221466
12:00+12с445196 0.2 10201747
15:00+12ссз335291 0.3 10201472
18:00+9сз4680100 0.8 1021432
21:00+6зсз3594100 2.6 1024413
11 мая, вт
вт1100:00+6юз128988 0.6 1022175
03:00+6ююз119192 0.6 102175
06:00+6ююв228890 0.0 1021144
09:00+10в566856 0.0 10191144
12:00+14в545396 0.0 10161620
15:00+13св3461100 0.0 10171141
18:00+12сз2274100 0.0 101835
21:00+10ссз2277100 0.0 101938
12 мая, ср
ср1200:00+8сз2282100 0.0 101821
03:00+6зюз11880 0.0 101810
06:00+8з00830 0.0 101860
09:00+13ссв226819 0.0 1017808
12:00+17ссв225992 0.0 10161360
15:00+18всв225822 0.0 10151213
18:00+18св116824 0.0 101595
21:00+12ююв01840 0.0 101611